Simultaneous Nadir Overpasses (SNOs) Predictions

Prediction of SNOs between GOES-14 and NOAA-20 Satellite Orbit:

Table of predicted SNOs for the next 14.0 days since TLE Epoch: 5/22/2021
Index Date Time (GOES-14) GOES-14 Lat,Lon NOAA-20 Lat,Lon Distance(km) Time Diff (sec)
1 05/22/2021 08:24:11 0.11,-104.15 0.32,-105.13 111.55 80
2 05/23/2021 08:08:06 0.12,-104.16 -0.69,-100.60 405.36 80
3 05/24/2021 20:30:03 -0.09,-104.32 -0.48,-105.91 182.09 80
4 05/25/2021 20:08:39 -0.11,-104.31 0.53,-101.38 333.69 80
5 05/27/2021 08:30:27 0.08,-104.14 0.63,-106.66 287.13 80
6 05/28/2021 08:14:23 0.09,-104.14 -0.38,-102.13 229.42 80
7 05/29/2021 20:36:20 -0.06,-104.32 -0.78,-107.44 356.72 80
8 05/30/2021 20:14:56 -0.08,-104.31 0.23,-102.91 159.25 80
9 06/01/2021 08:36:43 0.06,-104.12 1.00,-108.17 462.73 80
10 06/02/2021 08:20:38 0.07,-104.12 -0.01,-103.64 54.32 80
11 06/04/2021 20:23:52 -0.06,-104.32 -0.07,-104.44 13.14 80
